Location: Lescogan
(48.0866°N, 4.4611°W)
Time: 10:19:03
(UTC+00:00)

Daily predictions for brighter satellites

Satellite Brightness Start Highest point End
(mag) Time Altitude Azimuth Time Altitude Azimuth Time Altitude Azimuth
Cosmos 1745 Rocket 4.0 19:06:19 10° N 19:12:39 69° E 19:18:52 10° SSE
Cosmos 2297 4.1 19:08:28 10° NNW 19:13:57 47° NE 19:19:25 10° SE
NOSS 0 Rocket 4.0 19:08:28 10° SSW 19:14:41 87° ESE 19:20:55 10° NNE
HJ-1C 3.3 19:11:39 10° SSE 19:14:59 76° ENE 19:18:22 10° N
STARLINK-1117 3.6 19:11:43 10° WNW 19:15:45 78° NNE 19:19:46 10° ESE
USA 234 3.9 19:10:44 10° ENE 19:16:35 34° SE 19:22:24 10° SSW
STARLINK-1121 4.4 19:13:24 10° WNW 19:17:24 44° N 19:21:23 10° E
Meteor 2-5 Rocket 3.7 19:12:19 10° N 19:18:02 80° ENE 19:23:36 10° SSE
STARLINK-1192 4.2 19:14:43 10° SSW 19:18:27 37° SE 19:22:11 10° ENE
STARLINK-1078 3.6 19:16:13 10° WNW 19:20:15 82° NNE 19:24:17 10° ESE
Cosmos 2237 Rocket 2.2 19:15:08 10° SSW 19:20:45 80° ESE 19:26:25 10° NNE
ADEOS Rocket 3.4 19:14:03 10° NNE 19:21:01 81° WNW 19:27:11 10° SSW
Cosmos 1805 3.2 19:17:15 10° S 19:21:08 70° E 19:25:03 10° NNE
STARLINK-1106 4.4 19:18:23 10° WNW 19:22:23 45° N 19:26:23 10° E
STARLINK-1244 4.1 19:19:26 10° SSW 19:23:13 39° SE 19:27:00 10° ENE
STARLINK-1201 3.1 19:20:22 10° SW 19:23:33 54° SSE 19:26:46 10° ENE
STARLINK-1108 3.5 19:20:45 10° WNW 19:24:47 86° NNE 19:28:47 10° ESE
Cosmos 2278 Rocket 3.2 19:20:45 10° NW 19:26:14 51° WSW 19:31:41 10° S
STARLINK-1112 4.3 19:23:23 10° WNW 19:27:25 46° N 19:31:25 10° E
CZ-2C R/B 4.0 19:24:19 10° NE 19:27:39 17° E 19:30:57 10° SE
STARLINK-1138 4.0 19:24:03 10° SW 19:27:53 42° SE 19:31:44 10° ENE
Cosmos 1269 Rocket 4.3 19:23:21 10° S 19:28:20 44° ESE 19:33:21 10° NE
STARLINK-1209 2.6 19:25:57 10° WSW 19:28:53 79° SSE 19:31:46 10° ENE
STARLINK-1066 3.2 19:26:05 10° WNW 19:29:13 62° SSW 19:32:18 10° SE
STARLINK-1071 3.5 19:25:16 10° WNW 19:29:18 90° NW 19:33:08 11° ESE
STARLINK-1081 3.2 19:26:34 10° WNW 19:29:39 61° SSW 19:32:40 10° SE
STARLINK-1228 2.6 19:26:58 10° WSW 19:29:50 80° SSE 19:32:43 10° ENE
STARLINK-1070 3.2 19:27:01 10° WNW 19:30:06 60° SSW 19:33:06 10° SE
STARLINK-1124 3.6 19:26:09 10° WNW 19:30:19 89° SSW 19:34:14 11° ESE
STARLINK-1069 3.3 19:27:25 10° WNW 19:30:32 60° SSW 19:33:34 11° SE
STARLINK-1085 3.3 19:27:52 10° WNW 19:30:59 60° SSW 19:34:00 11° SE
STARLINK-1086 3.3 19:28:22 10° WNW 19:31:28 59° SSW 19:34:25 11° SE
STARLINK-1095 3.3 19:28:49 10° WNW 19:31:54 58° SSW 19:34:50 11° SE
Cosmos 1553 Rocket 4.2 19:26:05 10° SSW 19:32:08 78° W 19:38:16 10° N
STARLINK-1077 3.3 19:29:15 10° WNW 19:32:20 58° SSW 19:35:16 11° SE
STARLINK-1128 4.3 19:28:24 10° WNW 19:32:25 47° NNE 19:36:15 11° E
STARLINK-1143 3.9 19:28:46 10° SW 19:32:39 45° SE 19:36:33 10° ENE
STARLINK-1075 3.3 19:29:43 10° WNW 19:32:48 57° SSW 19:35:42 11° SE
STARLINK-1093 3.3 19:30:08 10° WNW 19:33:15 57° SSW 19:36:10 11° SE
SL-8 R/B 3.7 19:28:31 10° W 19:33:19 88° N 19:38:02 10° E
Meteor 1-24 Rocket 3.6 19:27:47 10° N 19:33:23 79° ENE 19:38:45 10° SSE
STARLINK-1074 3.3 19:30:34 10° WNW 19:33:41 57° SSW 19:36:36 11° SE
STARLINK-1110 3.6 19:29:47 10° WNW 19:33:49 86° SSW 19:37:29 12° ESE
SeaSat 1 3.9 19:29:21 10° NNE 19:34:01 42° NW 19:38:38 10° WSW
STARLINK-1087 3.3 19:31:04 10° WNW 19:34:09 56° SSW 19:37:00 11° SE
STARLINK-1088 3.3 19:31:32 10° WNW 19:34:36 55° SSW 19:37:26 12° SE
CZ-4 R/B 4.0 19:31:45 10° SSW 19:34:51 23° W 19:37:56 10° NW
STARLINK-1115 3.4 19:31:57 10° WNW 19:35:03 55° SSW 19:37:55 12° SE
ARGOS 3.2 19:29:51 10° SSE 19:35:10 61° ENE 19:40:30 10° N
STARLINK-1076 3.4 19:32:23 10° WNW 19:35:29 55° SSW 19:38:20 12° SE
STARLINK-1092 3.4 19:32:51 10° WNW 19:35:57 54° SSW 19:38:47 12° SE
STARLINK-1080 3.4 19:33:20 10° WNW 19:36:24 53° SSW 19:39:10 12° SE
STARLINK-1090 3.4 19:33:46 10° WNW 19:36:50 53° SSW 19:39:36 12° SE
STARLINK-1089 3.4 19:34:14 10° WNW 19:37:18 53° SSW 19:40:02 12° SE
STARLINK-1113 4.2 19:33:23 10° WNW 19:37:25 48° NNE 19:41:02 12° E
STARLINK-1107 3.4 19:34:41 10° WNW 19:37:45 52° SSW 19:40:28 12° SE
MOS 1 4.3 19:33:52 10° SSE 19:39:29 72° ENE 19:45:08 10° NNW
Cosmos 1470 3.5 19:38:02 10° SSE 19:41:29 32° E 19:44:57 10° NNE
STARLINK-1119 4.2 19:38:21 10° WNW 19:42:25 50° NNE 19:45:48 14° E
STARLINK-1122 3.6 19:38:57 10° WNW 19:42:59 77° SSW 19:46:17 15° SE
STARLINK-1241 3.7 19:39:08 10° SW 19:43:03 53° SE 19:46:58 10° ENE
STARLINK-1233 2.8 19:40:09 10° WSW 19:43:17 79° SSE 19:46:21 11° ENE
STARLINK-1212 2.8 19:40:37 10° WSW 19:43:44 80° SSE 19:46:46 11° ENE
STARLINK-1105 2.8 19:41:03 10° WSW 19:44:11 80° SSE 19:47:13 11° ENE
STARLINK-1206 2.8 19:41:33 10° WSW 19:44:39 81° SSE 19:47:38 11° ENE
STARLINK-1247 2.8 19:41:59 10° WSW 19:45:06 82° SSE 19:48:03 11° ENE
STARLINK-1227 2.8 19:42:24 10° WSW 19:45:31 82° SSE 19:48:30 11° ENE
ATLAS CENTAUR R/B 4.2 19:43:26 10° NW 19:45:32 13° NNW 19:47:34 10° N
ISS -3.0 19:42:20 10° WNW 19:45:35 46° N 19:48:11 15° ENE
Cosmos 2315 Rocket 4.2 19:39:38 10° SSE 19:45:42 53° E 19:51:52 10° NNE
STARLINK-1218 2.8 19:42:53 10° WSW 19:46:00 83° SSE 19:48:55 11° ENE
SL-08 RB Rocket 3.9 19:41:55 10° SSE 19:46:17 53° ENE 19:50:45 10° N
STARLINK-1226 2.8 19:43:20 10° WSW 19:46:28 83° SSE 19:49:23 12° ENE
STARLINK-1254 2.8 19:43:44 10° WSW 19:46:53 84° SSE 19:49:48 12° ENE
SJ-6B 2.9 19:43:21 10° SSE 19:47:22 63° ENE 19:51:28 10° N
STARLINK-1215 2.8 19:44:15 10° WSW 19:47:22 85° SSE 19:50:14 12° ENE
STARLINK-1114 4.1 19:43:22 10° WNW 19:47:26 52° NNE 19:50:36 16° E
STARLINK-1126 3.7 19:43:35 10° WNW 19:47:36 72° SSW 19:50:44 16° SE
STARLINK-1239 3.6 19:43:41 10° SW 19:47:37 57° SSE 19:51:30 10° ENE
STARLINK-1231 2.8 19:44:40 10° WSW 19:47:48 85° SSE 19:50:39 12° ENE
MetOp-A 4.5 19:42:55 10° SE 19:48:00 46° ENE 19:53:06 10° N
Resurs 1-3 4.3 19:44:43 12° SE 19:48:16 35° ENE 19:52:16 10° N
STARLINK-1232 2.8 19:45:35 10° WSW 19:48:42 86° SSE 19:51:32 12° ENE
STARLINK-1217 2.8 19:46:02 10° WSW 19:49:10 87° SE 19:51:58 12° ENE
Cosmos 1758 3.9 19:45:36 10° SSE 19:49:22 37° E 19:53:09 10° NNE
STARLINK-1208 2.8 19:46:27 10° WSW 19:49:36 87° SSE 19:52:25 12° ENE
STARLINK-1229 2.8 19:46:56 10° WSW 19:50:03 88° SE 19:52:49 13° ENE
STARLINK-1271 2.8 19:47:24 10° WSW 19:50:31 89° SSE 19:53:17 13° ENE
BREEZE-M DEB (TANK) 4.1 19:41:44 10° W 19:50:35 74° N 19:53:10 16° E
STARLINK-1270 2.8 19:47:51 10° WSW 19:50:58 89° SE 19:53:42 13° ENE
STARLINK-1154 2.8 19:48:17 10° WSW 19:51:24 90° ESE 19:54:07 13° ENE
Cosmos 304 Rocket 4.2 19:46:41 10° NNW 19:51:27 66° WSW 19:56:10 10° S
STARLINK-1082 3.7 19:48:09 10° WNW 19:52:10 68° SSW 19:55:08 17° SE
STARLINK-1240 3.5 19:48:15 10° SW 19:52:13 61° SSE 19:55:56 12° ENE
STARLINK-1197 2.8 19:49:11 10° WSW 19:52:18 89° NW 19:54:59 13° ENE
STARLINK-1130 (DARKSAT) 4.1 19:48:20 10° WNW 19:52:25 53° NNE 19:55:22 17° E
STARLINK-1189 2.8 19:49:39 10° WSW 19:52:46 89° NNW 19:55:26 13° ENE
STARLINK-1187 2.9 19:50:29 10° WSW 19:53:37 80° NNW 19:56:21 13° ENE
STARLINK-1188 2.8 19:50:33 10° WSW 19:53:39 87° NNW 19:56:17 14° ENE
CZ-2C R/B 2.9 19:48:44 10° SSE 19:53:49 89° ENE 19:58:42 10° NNW
STARLINK-1198 2.8 19:50:46 10° WSW 19:53:53 87° NW 19:56:31 14° ENE
Cosmos 2369 Rocket 3.0 19:49:01 10° NNW 19:54:13 34° NE 19:57:50 18° ESE
STARLINK-1235 3.0 19:51:11 10° WSW 19:54:19 73° NNW 19:57:05 13° ENE
Abrixas rocket 4.1 19:53:23 10° S 19:54:14 13° SSE 19:54:14 13° SSE
STARLINK-1199 2.9 19:52:28 10° WSW 19:55:37 85° NNW 19:58:13 14° ENE
Resurs 01 Rocket 2.5 19:53:04 17° ESE 19:55:40 31° ENE 19:59:33 10° N
STARLINK-1191 2.9 19:52:57 10° WSW 19:56:04 84° NNW 19:58:39 14° ENE
STARLINK-67 3.2 19:53:35 10° W 19:56:05 47° NNW 19:58:04 15° NE
FREGAT/IRIS 2.7 19:53:32 10° S 19:56:12 64° W 19:58:56 10° NNW
STARLINK-1210 2.9 19:53:22 10° WSW 19:56:31 84° NNW 19:59:05 15° ENE
STARLINK-1100 3.8 19:52:43 10° WNW 19:56:44 64° SSW 19:59:31 19° SE
STARLINK-1216 3.5 19:52:51 10° SW 19:56:50 66° SSE 20:00:23 13° ENE
STARLINK-1221 2.9 19:53:50 10° WSW 19:56:59 83° NNW 19:59:33 15° ENE
STARLINK-1084 4.0 19:53:19 10° WNW 19:57:24 55° NNE 20:00:09 19° E
STARLINK-1219 2.9 19:54:17 10° WSW 19:57:26 83° NNW 19:59:58 15° ENE
STARLINK-1222 2.9 19:54:43 10° WSW 19:57:52 82° NNW 20:00:23 15° ENE
Cosmos 1733 3.5 19:54:14 10° SSW 19:57:59 68° W 20:01:45 10° N
STARLINK-1211 2.9 19:55:11 10° WSW 19:58:19 82° NNW 20:00:48 15° ENE
STARLINK-1214 2.9 19:55:39 10° WSW 19:58:47 81° NNW 20:01:15 15° ENE
STARLINK-1245 2.9 19:56:08 10° WSW 19:59:15 81° NNW 20:01:40 16° ENE
STARLINK-1238 2.9 19:56:33 10° WSW 19:59:41 80° NNW 20:02:07 16° ENE
Meteor 1-22 Rocket 4.2 19:54:51 10° SSW 20:00:09 80° WNW 20:05:28 10° N
STARLINK-1205 2.9 19:57:30 10° WSW 20:00:37 79° NNW 20:02:59 16° ENE
STARLINK-1204 2.9 19:57:56 10° WSW 20:01:03 78° NNW 20:03:24 16° ENE
STARLINK-1083 3.9 19:57:20 10° WNW 20:01:19 60° SSW 20:03:57 20° SE
STARLINK-1237 3.5 19:57:29 10° SW 20:01:29 70° SSE 20:04:52 14° ENE
STARLINK-1098 3.9 19:58:17 10° WNW 20:02:23 58° NNE 20:04:55 22° E
Cosmos 494 Rocket 4.2 19:57:20 10° SSW 20:02:28 73° WNW 20:07:41 10° NNE
SL-14 R/B 3.5 20:01:24 10° NNW 20:05:28 72° W 20:09:27 10° S
STARLINK-1125 4.0 20:01:58 10° WNW 20:05:56 56° SW 20:08:23 21° SE
Cosmos 1726 3.6 20:06:29 20° ENE 20:06:29 20° ENE 20:08:50 10° NE
STARLINK-1202 3.4 20:02:05 10° SW 20:06:06 75° SSE 20:09:18 16° ENE
SPOT 3 Rocket 3.5 20:00:57 10° SSE 20:06:08 70° ENE 20:11:21 10° N
STARLINK-1123 3.9 20:03:17 10° WNW 20:07:24 60° NNE 20:09:44 24° E
Meteor 1-21 Rocket 4.4 20:02:05 10° N 20:07:32 50° ENE 20:11:31 18° SE
CZ-4C R/B 4.4 20:05:40 10° WNW 20:10:14 23° NNW 20:15:28 10° NE
STARLINK-1109 4.1 20:06:17 10° WNW 20:10:14 52° SW 20:12:32 23° SSE
Cosmos 1709 Rocket 4.1 20:04:03 10° N 20:10:18 82° W 20:16:26 10° S
IRIDIUM 103 4.5 20:05:26 10° N 20:10:33 52° E 20:14:45 15° SSE
STARLINK-1246 3.4 20:07:10 10° WSW 20:11:13 80° SSE 20:14:18 17° ENE
STARLINK-1097 3.8 20:08:15 10° WNW 20:12:22 63° NNE 20:14:29 27° E
MOS 1 Rocket 3.9 20:08:03 10° NNE 20:13:00 42° E 20:18:05 10° SSE
Meteor 2-15 4.3 20:07:06 10° S 20:13:07 73° E 20:19:10 10° NNE
STARLINK-1091 4.2 20:10:59 10° WNW 20:14:53 49° SW 20:17:02 24° SSE
Cosmos 292 Rocket 4.1 20:12:15 10° NNW 20:16:54 48° ENE 20:19:07 27° ESE
STARLINK-1099 3.8 20:13:14 10° WNW 20:17:22 66° NNE 20:19:17 30° E
Cosmos 1943 4.5 20:19:28 21° E 20:19:28 21° E 20:22:38 10° NE
Cosmos 1943 Rocket 2.2 20:14:14 10° NNW 20:19:43 61° ENE 20:22:51 26° SE
STARLINK-1224 3.5 20:16:02 10° WSW 20:20:03 89° S 20:22:45 20° ENE
Ariane Rocket 4.4 20:17:02 10° SSW 20:21:46 39° W 20:26:32 10° NNW
STARLINK-1104 3.7 20:18:14 10° WNW 20:22:22 69° NNE 20:24:04 34° E
Cosmos 2074 Rocket 4.2 20:16:35 10° N 20:22:44 54° ENE 20:26:45 22° SE
Cosmos 1455 Rocket 4.3 20:18:46 10° SSW 20:22:54 43° WNW 20:27:04 10° N
STARLINK-1225 3.5 20:20:44 10° WSW 20:24:46 87° NNW 20:27:17 22° ENE
USA 186 3.8 20:22:54 10° SSW 20:26:00 31° W 20:29:04 10° NNW
STARLINK-1203 3.5 20:22:25 10° WSW 20:26:22 80° NNW 20:28:44 23° ENE
STARLINK-1144 3.6 20:23:11 10° WNW 20:27:20 73° NNE 20:28:50 38° E
STARLINK-1072 4.5 20:24:04 10° WNW 20:27:48 39° SW 20:29:27 26° S
STARLINK-1234 3.7 20:25:54 10° W 20:28:49 44° NNW 20:29:59 28° NE
IRIDIUM 106 4.2 20:23:38 10° N 20:28:53 73° E 20:32:57 17° S
Cosmos 1437 4.0 20:26:33 10° N 20:28:32 26° NE 20:28:32 26° NE
STARLINK-1230 3.5 20:25:22 10° WSW 20:29:25 82° NNW 20:31:44 24° ENE
Cosmos 1626 Rocket 4.0 20:25:43 10° NNW 20:30:05 62° W 20:34:23 10° S
Cosmos 1626 3.6 20:26:55 10° NNW 20:30:21 36° W 20:33:46 10° SSW
Cosmos 1953 2.3 20:29:29 30° SSE 20:31:13 57° E 20:35:08 10° NNE
TSX-5 4.5 20:25:56 10° NW 20:31:22 67° WSW 20:33:49 25° SSE
Meteor 2-10 4.3 20:28:33 20° SSE 20:31:55 47° E 20:37:12 10° NNE
NOSS 3-3 (A) 4.4 20:26:59 10° S 20:32:11 34° ESE 20:37:55 10° NE
NOSS 3-3 (C) 4.4 20:27:07 10° S 20:32:18 34° ESE 20:38:00 10° NE
STARLINK-1103 3.6 20:28:10 10° WNW 20:32:19 76° NNE 20:33:37 42° E
Cosmos 2084 Rocket 3.5 20:29:24 10° NW 20:33:52 69° NE 20:35:19 41° ESE
STARLINK-1243 3.6 20:30:05 10° WSW 20:34:07 78° NNW 20:36:16 27° ENE
SL-16 R/B 2.4 20:28:52 10° SSW 20:34:31 75° WNW 20:40:13 10° NNE
Spot 2 Rocket 4.0 20:33:06 33° ESE 20:34:42 42° ENE 20:39:31 10° N
STARLINK-1101 3.6 20:33:09 10° WNW 20:37:19 81° NNE 20:38:25 48° ESE
Cosmos 1602 Rocket 3.9 20:33:14 10° NNW 20:37:41 67° W 20:41:06 16° S
STARLINK-1236 3.6 20:34:46 10° WSW 20:38:48 74° NNW 20:40:45 29° ENE
Aureole 3 3.5 20:38:26 14° S 20:41:48 90° ENE 20:46:55 10° N
STARLINK-1102 3.5 20:38:08 10° WNW 20:42:17 85° NNE 20:43:11 54° ESE
Aureole 2 Rocket 2.3 20:39:10 10° NNW 20:42:40 65° ENE 20:42:44 65° ENE
DMSP B5D2-2 4.0 20:41:02 10° NNE 20:46:17 88° ESE 20:51:31 10° SSW
H-2A R/B 3.8 20:41:58 10° SSW 20:46:38 31° W 20:51:13 10° NNW
STARLINK-1111 3.5 20:43:06 10° WNW 20:47:16 89° NNE 20:47:58 61° ESE
STARLINK-1269 3.8 20:44:13 10° WSW 20:48:14 68° NNW 20:49:49 35° NE
Terra 3.5 20:49:37 19° ENE 20:49:37 19° ENE 20:52:45 10° NNE
STARLINK-1073 3.4 20:48:05 10° WNW 20:52:15 86° SSW 20:52:45 68° SE
STARLINK-1200 3.9 20:48:56 10° WSW 20:52:57 64° NNW 20:54:20 38° NE
CZ-2C R/B 4.5 20:48:31 10° N 20:53:12 56° WNW 20:57:47 10° SSW
Cosmos 1703 3.6 20:49:40 10° N 20:53:09 48° NE 20:53:09 48° NE
Cosmos 1726 Rocket 4.3 20:55:08 36° ENE 20:55:08 36° ENE 20:58:20 10° NNE
ATLAS 2AS CENTAUR R/B 3.4 20:47:02 10° NW 20:54:28 47° NE 20:57:42 30° E
Cosmos 1603 3.7 20:53:26 28° S 20:56:12 52° ESE 21:01:39 10° NE
Meteor 1-16 Rocket 4.0 20:54:16 34° SSE 20:56:32 65° E 21:01:56 10° NNE
Cosmos 1825 Rocket 3.4 20:52:40 10° N 20:57:07 79° E 20:57:49 62° SSE
STARLINK-1121 3.4 20:53:05 10° WNW 20:57:14 81° SSW 20:57:32 74° SSE
STARLINK-1192 3.9 20:53:36 10° WSW 20:57:37 62° NNW 20:58:50 41° NE
STARLINK-1201 4.0 20:56:46 10° W 20:59:54 41° NNW 21:00:05 41° N
USA 234 3.2 20:53:29 10° NE 21:00:03 85° NNW 21:06:36 10° WSW
Cosmos 2327 Rocket 4.4 20:54:41 10° N 21:00:58 72° E 21:03:23 40° SSE
STARLINK-1106 3.5 20:58:03 10° WNW 21:02:11 76° SSW 21:02:18 75° S
STARLINK-1244 4.0 20:58:26 10° W 21:02:26 59° NNW 21:03:26 44° NE
MetOp-B 4.0 21:01:14 45° SSE 21:02:55 81° ENE 21:08:19 10° NNW
Cosmos 1758 Rocket 3.7 21:02:02 10° NNW 21:06:24 71° W 21:07:20 52° SSW
STARLINK-1138 4.1 21:03:09 10° W 21:07:09 57° NNW 21:07:57 47° NNE
STARLINK-1112 3.6 21:03:03 10° WNW 21:07:07 71° SW 21:07:07 71° SW
CZ-2C R/B 2.7 21:03:21 10° N 21:08:32 72° WNW 21:13:40 10° SSW
Cosmos 1992 Rocket 4.1 21:03:58 10° NNW 21:09:10 70° WSW 21:10:44 44° S
COSMOS 2455 4.1 21:04:20 10° NNW 21:09:30 28° NE 21:11:09 25° ENE
Meteor 1-11 4.2 21:05:19 10° N 21:11:07 65° ENE 21:12:06 55° ESE
STARLINK-1143 4.1 21:07:58 10° W 21:11:58 55° NNW 21:12:34 49° NNE
STARLINK-1128 3.8 21:08:03 10° WNW 21:11:54 64° WSW 21:11:54 64° WSW
Cosmos 1953 Rocket 3.4 21:08:18 10° N 21:12:43 78° ENE 21:12:43 78° ENE
Cosmos 2184 Rocket 4.2 21:07:14 10° NNW 21:13:34 71° W 21:17:03 28° S
Cosmos 1295 Rocket 4.5 21:09:20 10° N 21:15:34 64° ENE 21:16:48 53° SE
SL-8 R/B 3.5 21:11:08 10° W 21:15:55 80° SSW 21:16:00 80° S
STARLINK-1113 4.0 21:13:02 10° WNW 21:16:41 57° WSW 21:16:41 57° WSW
Cosmos 2251 Rocket 3.6 21:11:49 10° SSW 21:17:11 80° WNW 21:22:36 10° NNE
Meteor 2-17 Rocket 4.3 21:13:13 10° N 21:19:24 83° E 21:21:00 52° SSE
Cosmos 1606 Rocket 3.5 21:20:20 84° NW 21:20:20 84° NW 21:24:42 10° N
Cosmos 1656 Rocket 3.6 21:16:20 10° NNW 21:22:02 70° ENE 21:22:37 64° E
STARLINK-1119 4.2 21:18:00 10° WNW 21:21:27 51° WSW 21:21:27 51° WSW
STARLINK-1241 4.2 21:18:22 10° W 21:22:17 50° NNW 21:22:24 50° N
ISS -2.0 21:19:12 10° WNW 21:21:09 32° WNW 21:21:09 32° WNW
STARLINK-1239 4.3 21:22:59 10° W 21:26:49 49° NNW 21:26:49 49° NNW
STARLINK-1114 4.5 21:23:01 10° WNW 21:26:15 45° WSW 21:26:15 45° WSW
USA 245 4.0 21:27:48 68° SSW 21:28:24 78° WSW 21:34:12 10° NNW
ERS-1 Rocket 3.1 21:28:47 60° NE 21:28:47 60° NE 21:33:28 10° N
BREEZE-M DEB (TANK) 4.1 21:25:16 10° WSW 21:26:53 21° WSW 21:26:53 21° WSW
STARLINK-1240 4.5 21:27:37 10° W 21:31:15 47° NNW 21:31:15 47° NNW
Resurs 01 Rocket 3.2 21:30:38 25° SW 21:32:07 31° W 21:36:05 10° NNW
SPOT 5 3.5 21:35:18 41° NNE 21:35:18 41° NNE 21:38:26 10° N
Cosmos 2154 Rocket 4.1 21:28:09 10° NNW 21:34:31 76° W 21:36:21 49° S
Cosmos 2369 Rocket 2.9 21:32:58 10° NW 21:38:25 47° WSW 21:39:38 41° SW
Cosmos 1726 3.8 21:40:56 31° WNW 21:41:02 31° WNW 21:44:27 10° N
SL-24 R/B 4.5 21:36:07 10° N 21:41:15 87° W 21:41:21 86° SW
Cosmos 2263 4.4 21:36:52 10° NW 21:42:23 59° WSW 21:42:58 56° SW
Landsat 7 4.1 21:45:26 65° WNW 21:45:26 65° WNW 21:49:54 10° NNW
Cosmos 967 Rocket 4.4 21:40:00 10° SW 21:46:27 89° NW 21:53:00 10° NE
Cosmos 2228 3.9 21:47:49 46° WNW 21:47:49 46° WNW 21:51:42 10° N
Cosmos 962 Rocket 4.3 21:44:17 10° N 21:50:32 89° W 21:50:55 80° S
Nadezhda 1 Rocket 4.4 21:50:49 31° SW 21:53:58 60° WNW 22:00:18 10° N
SL-8 Rocket 4.0 21:50:31 10° N 21:56:35 70° ENE 21:56:35 70° ENE
Cosmos 2058 Rocket 4.3 22:01:23 40° NNW 22:01:23 40° NNW 22:04:25 10° N
Cosmos 1943 3.4 22:01:06 59° WSW 22:01:55 67° WNW 22:07:37 10° NNE
Cosmos 1943 Rocket 3.9 21:58:44 10° NW 22:03:01 23° WSW 22:04:24 21° WSW
Cosmos 2366 rocket 4.1 21:57:53 10° N 22:03:18 60° NE 22:03:18 60° NE
SPOT 1/Viking Rocket 4.3 22:12:43 46° W 22:12:43 46° W 22:17:29 10° NNW
NOSS 3-4 (A) 3.7 22:06:06 10° NW 22:13:04 89° SW 22:13:24 83° SSE
NOSS 3-4 (C) 3.7 22:06:12 10° NW 22:13:10 90° SW 22:13:29 83° SE
NOSS 3-3 (A) 4.5 22:16:50 10° WSW 22:22:43 57° NW 22:29:26 10° NE
NOSS 3-3 (C) 4.5 22:16:56 10° WSW 22:22:49 58° NW 22:29:33 10° NE
Terra 3.1 22:28:29 38° NNW 22:28:29 38° NNW 22:31:30 10° NNW
USA 234 4.1 22:36:33 10° ENE 22:42:43 46° NNW 22:48:53 10° W
ATLAS 2AS CENTAUR R/B 3.1 22:38:20 10° NW 22:45:08 56° W 22:45:08 56° W
Cosmos 1980 Rocket 4.2 22:47:06 10° N 22:50:54 19° NE 22:50:54 19° NE
COSMOS 2455 3.6 22:50:01 10° NW 22:54:18 48° NW 22:54:18 48° NW
ATLAS CENTAUR R/B 4.5 23:05:01 10° N 23:05:26 11° N 23:05:26 11° N
Mayak 1.8 23:42:52 10° NNW 23:43:29 13° NNW 23:43:29 13° NNW
CZ-4C R/B 3.6 23:44:52 10° NW 23:51:24 44° NE 23:51:42 44° NE
